Regional Weather Roundup
Issued by NWS Wakefield, VA

Home | Current Version | Previous Version | Text Only | Print | Product List | Glossary Off
Versions: 1 2 3 4 5 6 7 8 9 10 11 12 13 14 15 16 17 18 19 20 21 22 23 24 25 26 27 28 29 30 31 32 33 34 35 36 37 38 39 40 41 42 43 44 45 46 47 48 49 50

000
ASUS41 KAKQ 190114
RWRAKQ

REGIONAL WEATHER ROUNDUP
NATIONAL WEATHER SERVICE WAKEFIELD VA
900 PM EDT SAT APR 18 2015

Note: "fair" indicates few or no clouds below 12,000 feet with no
significant weather and/or obstructions to visibility. * = Denotes
station may not report precipitation (e.g., rain,snow,etc.),
thunder or fog.

VAZ042-051-052>054-056-190200-
NORTHERN VIRGINIA

CITY           SKY/WX    TMP DP  RH WIND       PRES   REMARKS
WASH NATIONAL  MOCLDY    71  52  50 S7        29.98R
DULLES         MOCLDY    62  51  67 CALM      29.98R
FORT BELVOIR   MOCLDY    64  50  58 E1        29.98R
QUANTICO       MOCLDY    68  55  63 CALM      29.99R
FREDERICKSBRG* PTCLDY    68  51  53 CALM      29.98R
STAFFORD*      PTCLDY    62  46  56 CALM      30.02R
WARRENTON      MOCLDY    59  53  82 CALM      29.99R
CULPEPER*      PTCLDY    63  55  77 CALM      29.99R
MANASSAS*      CLEAR     63  54  72 CALM      29.98R
LEESBURG*      PTCLDY    66  52  59 W3        30.00R
WINCHESTER     MOCLDY    63  43  48 CALM      30.00R
FRONT ROYAL*   FAIR      68  45  42 CALM      29.98R
LURAY*         FAIR      68  50  52 CALM      30.00R
$$

VAZ048-049-060>072-079>083-190200-
CENTRAL AND SOUTH CENTRAL VIRGINIA

CITY           SKY/WX    TMP DP  RH WIND       PRES   REMARKS
RICHMOND       MOCLDY    68  52  56 SE6       29.99R
CHESTERFIELD*  NOT AVBL
PETERSBURG*    CLEAR     71  51  48 SE3       30.00R
HANOVER        PTCLDY    65  52  62 E3        30.01R
TAPPAHANNOCK*  PTCLDY    67  47  47 E5        30.00R
QUINTON*       FAIR      69  52  55 S5        30.00R
CHARLOTTSVILLE PTCLDY    69  48  47 NE3       29.99R
GORDONSVILLE*  FAIR      62  52  70 CALM      29.99R
ORANGE*        PTCLDY    63  52  67 CALM      30.01S
LOUISA*        PTCLDY    61  52  72 CALM      29.99R
BUMPASS*       FAIR      64  49  56 CALM      29.99R
FARMVILLE*     PTCLDY    73  47  40 CALM      29.97S
CREWE*         FAIR      64  54  69 CALM      29.98R
FORT PICKETT*  FAIR      69  54  58 NE3       29.99R
CHASE CITY*    FAIR      74  57  56 NE3       29.98R
CLARKSVILLE*   FAIR      70  61  73 CALM      29.97R
SOUTH HILL*    PTCLDY    67  57  68 CALM      30.04R
LAWRENCEVILLE* FAIR      70  59  67 E3        29.99R
EMPORIA*       PTCLDY    68  61  77 E3        30.01R
$$

VAZ088>098-190200-
SOUTHEAST VIRGINIA

CITY           SKY/WX    TMP DP  RH WIND       PRES   REMARKS
NORFOLK        PTCLDY    61  57  87 S5        30.00R
VIRGINIA BEACH PTCLDY    61  57  87 CALM      30.01R
NORFOLK NAVAL  PTCLDY    68  59  73 S5        30.02R
WEST POINT*    MOCLDY    66  53  62 E5        30.02R
SALUDA*        FAIR      61  55  78 SE3       30.00R
NEWPORT NEWS   PTCLDY    63  56  78 E3        30.01R
LANGLEY AFB    PTCLDY    60  58  92 E5        30.00R
FORT EUSTIS    PTCLDY    64  63  96 S2        29.99R
WILLIAMSBURG*  PTCLDY    66  63  88 CALM      30.02R
HR EXEC AP*    FAIR      64  59  82 SE3       30.02R
FRANKLIN*      CLEAR    N/A N/A N/A CALM      30.01R
WAKEFIELD      PTCLDY    66  56  70 CALM      30.00R
$$

VAZ020-022-025-037-045-190200-
WEST CENTRAL AND SOUTHWEST VIRGINIA

CITY           SKY/WX    TMP DP  RH WIND       PRES   REMARKS
STAUNTON*      CLEAR     66  49  53 E3        30.03R
WAYNESBORO*    FAIR      67  50  52 SE5       30.01S
HOT SPRINGS VA PTCLDY    62  45  53 E8        30.08R
LYNCHBURG      PTCLDY    69  51  52 E5        29.99S
DANVILLE       PTCLDY    67  61  81 E3        29.96R
SOUTH BOSTON*  FAIR      69  58  66 NE3       29.97R
MARTINSVILLE   MOCLDY    67  60  78 CALM      30.00R
ROANOKE        MOCLDY    71  50  47 E6        29.99R
BLACKSBURG     MOCLDY    68  50  52 SE5       30.04R
DUBLIN*        MOCLDY    65  55  70 CALM      30.03R
MARION*        PTCLDY    66  55  66 CALM      30.04R
HILLSVILLE*    MOCLDY    64  58  78 S5        30.04R
RICHLANDS*     MOCLDY    69  49  49 SW5       30.01R
WISE*          CLOUDY    68  50  52 SE6       30.04R
ABINGDON*      CLOUDY    68  56  65 CALM      30.01R
$$

MDZ021>025-VAZ099-100-190200-
SOUTHERN MARYLAND AND THE DELMARVA PENINSULA

CITY           SKY/WX    TMP DP  RH WIND       PRES   REMARKS
PATUXENT RIVER CLOUDY    61  52  72 CALM      29.99R
BAY BRIDGE APT   N/A     64  52  63 CALM      29.98R
LEONARDTOWN    MOCLDY    63  46  55 CALM      30.01R
DOVER          CLOUDY    63  54  71 S5        29.94R HAZE
GEORGETOWN     CLOUDY    64  51  62 S6        30.00R
EASTON         NOT AVBL
CAMBRIDGE      NOT AVBL
SALISBURY      CLOUDY    62  48  60 S3        30.00R
OCEAN CITY     CLOUDY    57  53  86 SW6       30.00S
WALLOPS ISLAND CLOUDY    58  55  90 SE5       30.01R
ACCOMACK*      MOCLDY    59  52  77 CALM      30.00R
$$

NCZ012>017-030>032-190200-
NORTH CENTRAL AND EASTERN NORTH CAROLINA

CITY           SKY/WX    TMP DP  RH WIND       PRES   REMARKS
ROANOKE RAPIDS CLOUDY    68  61  77 SE3       30.00R
RALEIGH        CLOUDY    69  62  78 S5        29.97R
ELIZABETH CITY PTCLDY    62  59  90 CALM      30.02R
AHOSKIE*       MOCLDY    66  63  89 SE3       30.02R
EDENTON*       PTCLDY    64  61  90 E7        30.02R
CURRITUCK*     PTCLDY    61  58  92 CALM      30.01R
KILL DEVIL HLS PTCLDY    58  56  95 NE5       30.01R
MANTEO         PTCLDY    60  58  94 NE6       30.02R
CAPE HATTERAS  PTCLDY    63  62  97 NE6       30.00R
TARBORO*       HVY RAIN  68  63  86 S3        30.01R
GOLDSBORO      PTCLDY    71  65  81 E3        29.96R
WASHINGTON     RAIN      65  64  96 CALM      30.01R
GREENVILLE     RAIN      66  64  94 SE5       30.02S
NEW BERN       PTCLDY    67  64  90 CALM      30.00R FOG
WILMINGTON     PTCLDY    66  63  90 NE3       29.98R
$$

VAZ048-190200-
ELSEWHERE

CITY           SKY/WX    TMP DP  RH WIND       PRES   REMARKS
HARRISBURG PA  CLOUDY    68  43  40 NW7       29.95R
BALTIMORE      CLOUDY    69  46  43 S5        29.97R
ANNAPOLIS      CLOUDY    65  51  60 CALM      29.98R
ANDREWS AFB    MOCLDY    67  49  51 S3        29.98R
PHILADELPHIA   MOCLDY    72  45  37 SW8       29.95R
HENDERSON NC   MOCLDY    68  60  75 CALM      29.98R
GREENSBORO     CLOUDY    71  60  68 SE5       29.96R
ROCKY MOUNT    PTCLDY    68  63  84 E8        29.99R
$$

VAZ100-190200-
MARINE

STATION/POSITION TIME  TEMP    WIND        PRES    WAVE   SWELL
                       AIR SEA DIR/SP/G            HT/PER HT/PER
                 (UTC) (F)     (DEG/KT/KT) (MB)    (FT/S) (FT/S)
CAPE MAY NJ      0000   60 58  170/  8/ 11 1014.7R
LEWES DE         0000   65 55  180/  6/  9 1014.9S
15NM E FENWICK I 0050   54 52              1015.5R   2/12
OCEAN-CITY-INLET 0000   55 51  210/  5/  6 1015.5R
WACHAPREAGUE VA  0000   60 64  120/  2/  4 1015.6R
THOMAS POINT MD  0100   67 57  210/ 12/ 12 1015.8R
GOOSES REEF MD   0100   63 60  240/  4/  4   N/A     0
COVE POINT MD    0000   67     110/  4/  5 1014.5F
SOLOMONS ISLAND  0000      57                N/A
BISHOPS HEAD MD  0000   69 71   30/  2/  3 1014.5F
PINEY POINT MD   0006          180/  3/  4   N/A
CAMBRIDGE MD     0000   71 57  210/  2/  3 1014.6S
LEWISETTA VA     0000   67 64              1014.9R
RAPPAHANNOCK LGT 0000          100/  8/  8 1015.8R
STINGRAY PT      0100   60 59  180/  4/  4 1017.4S   0
YORK RVR RNG VA  0000   57     150/  7/  8 1014.8R
YORKTOWN VA      0006   64 59  120/  3/  4 1015.0R
DOMINION TERM VA 0000   60      70/  6/  9 1015.2R
KIPTOPEKE VA     0000      61  180/  3/  3   N/A
CHES BAY BRIDGE  0006   58 55  120/  6/  8 1014.9F
CAPE HENRY VA    0000   57     160/  8/ 10 1013.9F
CHESAPEAKE LGHT  0000   54     140/ 14/ 14 1015.8F
WILLOUBY STN VA  0000   60     120/  6/  8 1015.7R
S CRANEY ISL VA  0000          140/  5/  6 1015.2R
CAPE HENRY BUOY  0028      54                N/A     3/ 8   2/14
1ST LANDING BUOY 0100   55     160/  6/  6 1015.9R   1/ 5
OFFSHORE WE BUOY 0011      51                N/A     3/ 7   3/ 7
64NM E OF VA BCH 0050   57 55   30/  2/  4 1015.0R   3/ 8   3/ 8
DUCK PIER NC     0000   56 57   40/  5/  6 1014.8R
44056 DUCK FRF   0011      56                N/A     3/ 7   2/13
OREGON INLET NC  0000   58 66   20/  6/  9 1015.2R
HATTERAS NC      0006   69 69   90/  2/  4 1014.6R
DIAMOND SHLS NC  0050   71 76   20/  8/  8 1015.3R   5/11   5/11
CAPE LOOKOUT NC  0100   68     350/  2/  2 1015.2R
$$



USA.gov is the U.S. government's official web portal to all federal, state and local government web resources and services.